Temp
63 57 55 60 61 63 64 61 61 66 71 66 67 67 70 75 75 74 75 76 77 78 82 75 73 72 71 71 70 71 71 71 72 72 72 72 72 73 73 73 72 72 72 72
57 54 63 67 65 61 60 59 60 66 69 66 66 65 70 72 73 76 76 76 77 79 78 70 68 69 70 69 70 70 71 70 72 72 72 74 73 74 73 72 71 71 72 71
56 61 66 63 62 58 58 58 59 60 64 66 64 61 66 74 74 77 78 78 78 77 76 68 67 68 70 69 69 71 71 70 72 71 71 71 71 71 72 72 72 72 71 70
58 67 63 59 58 61 53 64 63 60 57 54 63 51 63 68 70 74 76 77 79 78 70 68 67 67 68 70 72 72 71 70 72 71 71 70 71 70 71 71 71 71 70 70
54 58 59 57 59 62 58 66 61 59 55 55 58 53 60 66 65 70 76 77 78 73 71 68 68 69 71 71 72 72 71 71 71 71 72 71 69 71 71 70 68 68 70 69
60 67 65 65 65 65 67 63 61 60 58 47 56 55 55 63 66 72 77 79 72 68 68 68 69 70 71 73 72 71 71 70 71 71 70 70 68 68 70 69 69 69 68 67
55 58 64 67 61 65 63 57 46 44 45 45 59 54 56 68 72 72 75 79 71 68 68 67 67 70 70 70 71 72 71 69 71 71 71 70 69 68 68 68 69 67 67 66
47 45 58 65 62 59 59 58 50 40 42 49 56 49 56 70 75 76 77 77 70 68 68 68 70 71 71 71 71 72 71 71 71 72 71 70 69 72 72 70 70 69 68 69
48 50 63 65 67 66 58 54 65 55 52 52 56 56 65 71 70 72 74 72 69 67 67 68 70 71 71 71 71 71 71 72 72 72 71 70 71 70 70 69 69 71 69 69
50 46 60 63 68 68 63 65 50 55 44 42 50 52 59 66 69 72 72 70 67 66 67 69 70 70 72 72 72 72 73 72 72 72 72 73 72 72 71 71 69 69 69 70
51 50 54 62 58 58 59 57 58 59 56 48 46 54 68 70 71 74 75 71 67 66 68 69 71 71 73 73 73 71 72 72 72 72 72 71 72 71 70 71 70 70 70 70
48 47 48 54 65 68 64 59 59 52 47 55 54 56 69 70 72 73 72 68 68 69 70 72 72 72 72 72 72 72 72 73 73 73 72 72 72 71 70 70 70 71 69 70
43 45 45 49 56 63 59 61 62 59 58 52 51 56 70 70 71 72 72 68 67 68 69 71 71 71 72 72 72 73 72 73 74 73 72 71 70 70 69 69 69 70 70 69
44 42 43 46 50 56 54 58 61 59 54 54 55 61 69 71 72 72 70 68 68 68 68 70 70 72 73 73 73 73 73 74 73 73 72 71 70 70 70 70 70 70 70 69
39 37 42 45 47 49 51 58 59 56 58 53 58 60 67 71 74 72 70 68 68 68 68 70 70 71 72 72 72 74 74 73 73 72 72 70 70 71 71 70 70 70 70 70
44 37 42 45 51 52 50 54 59 60 61 60 61 62 72 75 72 72 69 68 69 70 70 71 71 72 72 72 72 73 73 73 73 72 72 72 72 71 70 70 70 70 69 65
42 40 40 43 47 50 47 55 57 59 63 63 58 65 72 72 73 74 72 71 72 72 71 71 71 72 72 73 73 72 73 73 72 72 72 72 72 71 71 71 70 69 67 68
42 40 41 41 45 38 56 60 65 60 63 67 68 70 73 75 79 81 79 75 74 74 73 73 73 73 73 75 74 75 75 73 73 73 73 73 73 72 71 71 69 67 66 65
48 43 40 38 41 49 53 51 50 58 58 55 61 70 73 76 76 77 79 79 77 76 76 75 76 75 73 73 75 74 73 74 74 73 73 74 74 72 71 70 68 67 68 68
48 47 41 40 36 41 45 52 57 55 52 54 55 56 58 63 67 76 84 79 78 78 77 76 76 75 73 73 74 73 73 73 73 75 75 75 75 73 71 70 68 67 69 68
36 34 34 38 38 45 50 54 57 47 48 54 55 55 56 58 73 70 68 79 79 77 77 77 75 74 72 73 72 73 73 72 76 77 76 75 74 72 72 69 68 68 69 68
36 35 35 38 37 38 53 55 49 51 54 55 56 56 56 59 61 64 68 73 77 76 76 76 74 74 73 73 73 74 72 76 77 76 75 74 72 74 72 69 68 69 68 67
35 39 37 42 46 51 52 52 57 57 55 56 56 58 59 59 61 64 67 70 76 77 77 78 76 73 72 73 75 73 74 76 75 74 74 73 72 73 72 70 68 69 68 70
42 44 42 43 48 50 50 54 56 57 57 59 60 59 60 60 63 65 68 70 76 77 77 77 77 74 71 72 75 76 76 76 75 73 72 72 71 71 71 73 72 72 70 71
38 41 40 42 48 50 52 52 54 55 60 60 62 62 61 63 64 66 67 70 77 77 78 78 77 75 74 73 75 77 76 76 73 72 72 71 73 70 70 72 73 73 72 71
43 43 41 42 49 46 46 53 55 54 57 59 60 61 64 64 64 66 68 73 77 78 78 76 77 77 76 75 76 77 77 76 73 71 72 72 74 72 73 72 69 44 51 49
MSLP
1007.38 1007.29 1004.56 1004.42 1004.95 1005.66 1005.18 1004.95 1004.51 1004.63 1004.93 1004.77 1003.91 1003.49 1003.16 1002.72 1002.81 1002.40 1001.58 1001.03 1000.75 1000.38 1000.45 1001.19 1001.69 1002.51 1002.89 1003.38 1003.89 1004.68 1005.60 1006.94 1007.42 1007.98 1008.50 1008.90 1009.12 1009.34 1009.49 1009.58 1009.49 1009.52 1009.63 1009.67
1006.68 1003.94 1001.71 1004.27 1005.15 1005.42 1005.27 1004.70 1004.13 1004.43 1004.55 1004.73 1003.79 1002.96 1003.04 1002.46 1002.15 1001.55 1000.88 1000.39 1000.02 1000.05 1000.54 1001.48 1002.20 1002.86 1003.36 1003.76 1004.41 1005.16 1005.82 1006.63 1007.19 1007.74 1008.34 1008.66 1008.92 1009.12 1009.26 1009.30 1009.20 1009.18 1009.23 1009.29
1002.23 998.80 1003.32 1003.87 1003.85 1004.43 1004.27 1003.86 1004.18 1004.10 1004.38 1004.40 1003.95 1002.50 1002.61 1001.51 1001.50 1000.48 999.95 999.92 999.68 999.97 1000.35 1001.51 1002.16 1002.99 1003.61 1004.07 1004.74 1005.31 1005.95 1006.54 1007.10 1007.86 1008.34 1008.75 1009.09 1009.11 1008.99 1008.89 1008.93 1009.00 1009.06 1009.04
1002.59 1001.49 1002.04 1002.85 1002.86 1003.76 1003.28 1004.33 1004.58 1004.89 1005.02 1003.87 1004.21 1001.94 1002.02 1001.11 1000.29 999.45 998.98 999.09 999.13 999.63 1000.67 1001.43 1002.20 1003.08 1003.72 1004.28 1004.94 1005.56 1006.03 1006.59 1007.25 1007.84 1008.08 1008.45 1008.54 1008.51 1008.69 1008.78 1008.82 1008.84 1008.85 1008.80
1000.60 1001.01 1001.43 1001.62 1001.01 1002.54 1002.18 1004.02 1004.35 1004.83 1005.02 1004.90 1004.19 1003.29 1001.21 1001.00 999.43 998.41 998.04 998.49 999.16 999.93 1000.54 1001.43 1002.20 1002.90 1003.73 1004.54 1005.12 1005.68 1006.21 1006.70 1007.33 1007.69 1007.99 1008.27 1008.45 1008.54 1008.62 1008.74 1008.72 1008.70 1008.66 1008.76
1001.29 1000.84 1000.61 999.43 1001.31 1002.03 1003.03 1003.55 1004.06 1004.39 1004.53 1003.57 1003.13 1003.15 999.69 999.44 998.35 997.55 997.16 997.86 998.82 999.89 1000.75 1001.77 1002.52 1003.03 1003.86 1004.66 1005.28 1005.76 1006.28 1006.81 1007.34 1007.67 1008.05 1008.13 1008.27 1008.40 1008.43 1008.47 1008.42 1008.42 1008.61 1008.70
1001.24 1000.44 999.65 999.87 1000.57 1001.59 1002.25 1002.89 1003.29 1003.68 1003.42 1001.57 1002.24 1001.96 998.77 998.19 997.65 997.36 997.16 997.64 998.88 1000.00 1000.89 1001.86 1002.70 1003.03 1003.94 1004.64 1005.23 1005.76 1006.31 1006.87 1007.26 1007.61 1007.80 1008.02 1008.21 1008.33 1008.34 1008.36 1008.22 1008.30 1008.42 1008.51
1000.66 999.97 998.98 998.57 998.69 999.45 1000.20 1000.65 1000.83 1001.18 1001.31 1000.99 1001.09 1000.07 997.79 997.22 996.10 996.48 996.79 997.59 998.91 1000.08 1000.93 1001.80 1002.60 1003.32 1003.86 1004.57 1005.14 1005.61 1006.23 1006.73 1007.20 1007.46 1007.66 1007.95 1008.13 1008.20 1008.16 1008.15 1008.18 1008.26 1008.21 1008.27
1000.66 998.66 997.72 997.94 998.13 998.87 999.39 999.75 1000.31 1000.53 1001.08 1000.37 999.07 999.04 997.54 996.34 995.80 995.94 996.26 997.45 998.68 999.98 1000.81 1001.75 1002.63 1003.35 1003.87 1004.50 1005.04 1005.52 1006.17 1006.59 1006.98 1007.31 1007.53 1007.80 1007.98 1008.16 1008.11 1008.17 1008.34 1008.20 1008.33 1008.47
1002.15 999.53 997.84 997.80 997.87 997.92 997.70 999.24 1000.25 1000.00 999.53 999.25 998.22 997.82 996.10 995.27 995.18 995.30 996.03 997.17 998.63 1000.00 1000.92 1001.77 1002.58 1003.28 1003.93 1004.38 1005.03 1005.69 1006.11 1006.44 1006.87 1007.17 1007.42 1007.59 1007.81 1008.03 1008.05 1008.11 1008.17 1008.19 1008.27 1008.37
1003.70 1001.27 998.10 997.37 996.16 996.07 997.65 998.13 998.52 998.88 998.83 998.05 997.40 996.19 995.21 994.48 994.64 994.98 995.65 996.78 998.30 999.67 1000.61 1001.47 1002.35 1003.21 1003.83 1004.28 1004.96 1005.63 1006.07 1006.47 1006.81 1007.13 1007.47 1007.60 1007.71 1007.96 1008.01 1008.05 1008.13 1008.18 1008.20 1008.42
1004.86 1002.73 999.24 996.59 996.35 996.38 996.79 996.89 997.35 997.21 998.15 997.82 997.18 995.67 994.91 994.73 994.99 995.38 995.89 997.08 998.40 999.53 1000.26 1001.32 1002.15 1002.97 1003.64 1004.21 1004.82 1005.37 1005.97 1006.30 1006.67 1007.09 1007.43 1007.53 1007.73 1007.90 1007.96 1008.05 1008.15 1008.11 1008.16 1008.44
1006.54 1003.46 1000.17 998.32 997.76 996.78 996.18 996.57 997.31 997.61 997.56 997.11 996.59 995.38 994.79 994.84 994.89 995.32 995.70 997.14 998.64 999.40 1000.33 1001.25 1002.08 1002.74 1003.39 1003.99 1004.60 1005.10 1005.75 1006.14 1006.61 1007.07 1007.34 1007.54 1007.71 1007.78 1007.95 1008.10 1008.18 1008.18 1008.37 1008.65
1007.02 1004.73 1001.70 998.91 997.83 997.13 996.65 996.73 997.00 997.15 996.71 996.47 995.88 995.45 994.33 994.39 994.56 995.25 996.07 997.04 998.28 999.32 1000.13 1000.98 1001.81 1002.38 1003.12 1003.68 1004.34 1004.90 1005.51 1006.08 1006.60 1007.01 1007.26 1007.48 1007.64 1007.76 1007.96 1008.16 1008.29 1008.26 1008.44 1008.76
1007.25 1005.16 1003.21 1001.10 999.93 998.99 997.67 996.47 996.49 996.33 996.55 996.15 995.95 995.30 993.83 994.08 994.42 995.08 996.22 997.12 998.13 999.05 999.77 1000.50 1001.24 1002.03 1002.77 1003.41 1004.12 1004.68 1005.31 1005.99 1006.55 1006.91 1007.19 1007.49 1007.66 1007.84 1008.01 1008.18 1008.45 1008.54 1008.55 1008.82
1006.53 1005.31 1003.72 1001.23 1000.19 999.27 998.08 997.10 996.31 996.25 996.25 996.13 995.85 994.66 994.46 994.48 994.84 994.99 995.79 996.80 997.45 998.20 999.00 1000.01 1000.83 1001.66 1002.29 1002.95 1003.64 1004.40 1005.13 1005.83 1006.41 1006.79 1007.09 1007.50 1007.70 1007.83 1008.06 1008.29 1008.52 1008.64 1008.87 1009.35
1006.29 1005.38 1003.92 1001.22 1000.55 999.29 997.64 996.43 996.40 996.32 996.24 996.22 995.41 994.58 994.53 994.21 994.05 994.34 995.11 996.15 996.26 997.09 998.07 999.07 1000.01 1000.93 1001.76 1002.47 1003.26 1004.04 1004.84 1005.66 1006.22 1006.62 1007.07 1007.46 1007.72 1007.90 1008.10 1008.33 1008.61 1008.85 1009.14 1009.37
1006.04 1005.33 1004.22 1002.20 1000.75 998.93 996.99 996.68 996.06 996.57 996.58 996.49 995.91 995.41 994.63 993.98 993.42 993.67 994.34 994.95 995.58 996.34 997.36 998.49 999.48 1000.42 1001.37 1002.13 1003.03 1003.82 1004.64 1005.38 1005.93 1006.41 1006.87 1007.30 1007.59 1007.90 1008.21 1008.34 1008.75 1009.17 1009.46 1009.57
1005.88 1005.38 1004.07 1002.62 1000.92 999.27 998.00 998.64 998.46 997.48 997.71 998.53 997.30 996.39 995.53 994.81 994.45 993.20 993.78 994.13 994.82 994.87 995.93 997.13 998.43 999.71 1000.87 1001.75 1002.71 1003.61 1004.35 1004.99 1005.61 1006.06 1006.56 1006.98 1007.37 1007.82 1008.25 1008.47 1008.82 1009.17 1009.37 1009.62
1005.56 1005.52 1004.89 1003.36 1001.62 999.63 1000.22 999.84 999.78 999.50 999.21 999.89 999.57 998.64 997.80 996.90 995.31 993.19 993.20 993.67 994.44 995.31 995.93 996.80 998.10 999.44 1000.49 1001.41 1002.41 1003.19 1003.88 1004.54 1005.12 1005.63 1006.19 1006.73 1007.14 1007.58 1008.04 1008.55 1008.90 1009.28 1009.44 1009.63
1005.67 1005.91 1005.07 1003.85 1002.50 1001.30 1001.12 1000.08 999.68 999.99 1000.96 1000.66 1000.39 999.79 998.94 997.88 995.35 994.83 994.85 993.91 993.85 994.63 995.38 996.58 997.66 998.64 999.76 1000.90 1001.95 1002.59 1003.38 1003.92 1004.58 1005.33 1006.01 1006.62 1007.09 1007.50 1007.96 1008.60 1008.99 1009.19 1009.42 1009.81
1005.22 1005.12 1004.82 1004.26 1003.03 1002.13 1001.95 1000.66 1000.79 1001.73 1001.44 1001.17 1000.69 1000.14 999.30 998.46 997.07 996.08 995.58 994.90 994.77 994.12 995.11 996.18 997.15 998.19 999.39 1000.46 1001.24 1001.92 1002.68 1003.35 1004.17 1004.98 1005.76 1006.40 1006.96 1007.35 1008.02 1008.48 1008.91 1009.25 1009.51 1009.87
1005.72 1005.36 1004.79 1004.03 1002.77 1002.84 1002.83 1002.62 1002.38 1002.09 1001.62 1001.21 1000.82 1000.08 999.23 998.18 996.88 996.22 995.39 995.18 994.55 994.69 994.27 995.23 996.24 997.61 998.88 999.85 1000.38 1001.06 1001.85 1002.98 1003.84 1004.62 1005.31 1006.17 1006.86 1007.33 1007.88 1008.33 1008.76 1009.15 1009.53 1009.69
1006.01 1005.86 1005.00 1004.34 1003.60 1003.14 1003.08 1002.89 1002.72 1002.31 1001.61 1001.04 1000.52 999.75 998.87 997.80 996.74 995.90 995.06 994.64 994.10 994.14 994.59 994.78 995.88 996.99 998.08 999.08 999.72 1000.08 1001.34 1002.43 1003.33 1004.17 1004.98 1005.80 1006.52 1007.20 1007.74 1008.12 1008.60 1008.83 1009.18 1009.38
1006.95 1006.25 1005.44 1004.78 1003.89 1003.26 1002.95 1002.82 1002.50 1002.02 1001.28 1000.53 999.88 999.28 998.42 997.41 996.21 995.56 994.75 994.16 993.53 993.56 994.28 994.33 994.93 995.78 996.81 998.14 998.95 999.86 1000.80 1001.81 1002.75 1003.65 1004.55 1005.41 1006.04 1006.83 1007.40 1007.78 1008.29 1008.58 1008.92 1009.08
1006.81 1006.12 1005.47 1004.65 1004.34 1004.32 1003.72 1003.11 1002.66 1002.04 1001.17 1000.34 999.39 998.27 997.69 997.07 995.94 995.17 994.24 993.43 992.96 992.87 993.35 994.31 994.53 995.41 996.44 997.40 998.30 999.17 1000.10 1001.03 1001.98 1003.03 1003.94 1004.66 1005.29 1006.18 1006.73 1007.37 1008.37 1009.00 1009.13 1009.49
Wind_Speed
20 13 28 29 29 14 17 21 20 14 9 7 13 18 15 19 19 19 19 19 18 19 13 5 2 7 12 14 17 18 18 13 9 7 4 3 5 4 5 5 7 7 6 7
12 30 31 25 19 23 24 22 23 14 12 10 15 22 18 18 21 16 18 20 18 16 10 1 4 7 10 13 15 16 15 14 9 6 4 2 2 3 3 3 4 5 6 5
26 38 22 22 26 25 28 29 23 19 4 9 9 19 20 22 14 15 19 17 16 14 7 5 8 9 11 14 16 15 14 13 9 7 4 3 2 3 3 2 1 2 3 4
23 25 21 22 28 23 28 22 23 18 9 14 2 19 15 21 21 18 18 14 14 8 3 7 10 11 13 15 14 13 12 12 9 8 5 5 3 1 1 2 3 3 3 3
19 17 23 27 28 27 20 14 19 16 7 12 18 15 15 7 17 22 19 14 6 3 5 9 12 13 15 15 13 12 12 10 9 7 5 4 4 1 1 2 4 3 2 2
19 11 26 26 16 22 15 11 11 9 11 19 19 14 22 14 21 17 15 11 2 3 8 9 11 16 16 13 12 12 12 10 9 7 6 5 4 3 1 2 2 2 0 2
16 17 5 14 22 21 20 16 7 8 10 13 11 14 19 10 18 17 16 8 5 7 11 12 15 18 16 15 14 12 11 10 8 7 5 5 4 2 1 3 2 1 2 4
15 12 22 17 16 18 28 24 11 11 10 9 15 12 10 19 26 19 16 6 6 9 11 14 17 16 16 15 14 12 11 10 9 7 5 4 3 1 2 1 0 1 2 4
12 16 13 19 14 25 24 20 17 13 1 4 5 6 13 16 12 12 15 9 9 11 13 16 17 16 15 15 14 12 11 10 8 7 5 4 2 2 0 1 1 1 3 4
7 7 13 17 20 25 19 23 13 11 14 9 5 5 10 9 14 10 9 10 10 12 14 16 17 15 14 14 12 11 10 9 8 6 5 3 2 2 3 2 2 3 4 6
11 7 12 19 21 23 12 23 8 10 6 6 3 5 8 16 15 14 11 11 14 16 17 17 17 15 14 13 12 11 9 8 7 6 5 4 3 4 4 2 2 2 4 6
6 8 5 23 11 19 21 19 21 11 9 8 1 4 1 9 1 2 8 11 14 15 16 17 16 15 14 13 12 11 9 7 7 6 5 4 4 4 4 3 3 2 6 6
8 7 10 10 7 13 28 20 21 6 5 14 10 2 2 2 2 4 7 12 13 15 16 16 16 15 14 14 12 11 9 8 7 6 6 5 4 4 4 5 4 5 6 6
8 5 10 9 6 1 22 24 21 18 12 10 16 11 15 8 6 2 6 13 13 15 16 16 16 15 14 14 12 11 9 8 7 6 6 5 4 4 4 4 4 6 7 8
3 4 5 14 12 7 3 21 24 24 19 15 10 22 22 14 10 0 6 13 15 16 17 18 18 16 15 14 12 10 9 9 8 7 7 5 5 5 5 5 5 6 7 7
2 3 8 8 7 8 8 6 18 23 23 19 11 17 17 11 2 5 10 14 17 17 18 18 18 17 16 15 13 11 10 10 9 8 7 6 6 6 6 6 6 6 8 7
3 2 5 13 4 5 10 14 11 13 21 20 18 16 6 8 9 8 13 16 19 19 19 20 20 18 16 15 14 13 12 11 10 9 8 8 7 6 6 5 6 6 7 7
4 1 3 3 2 10 3 12 13 14 10 23 21 14 16 18 18 7 11 18 18 17 19 18 18 17 16 14 14 12 12 11 11 10 9 9 7 7 6 6 7 5 5 7
14 4 2 3 5 4 6 11 7 5 8 11 7 18 20 14 11 16 12 16 19 21 20 19 18 18 16 16 14 14 13 12 12 12 11 10 9 9 7 7 6 5 6 7
13 9 4 2 4 11 7 14 7 1 9 13 11 9 10 11 12 15 8 16 15 15 16 18 18 17 16 16 15 15 14 13 13 13 12 11 10 10 9 7 7 5 6 8
7 3 9 6 3 2 11 18 2 11 4 15 13 11 11 7 11 13 17 11 15 16 19 19 19 18 18 17 17 16 15 15 14 13 12 11 10 9 9 8 7 8 7 8
5 8 5 5 4 3 18 5 3 6 8 12 13 12 14 15 20 18 16 13 12 20 20 19 17 17 17 18 17 17 17 15 13 14 13 12 11 8 8 9 8 8 8 9
3 1 2 4 1 7 7 7 5 6 10 13 15 15 15 17 18 17 15 13 12 17 19 19 19 18 17 18 18 19 17 16 15 14 14 13 12 10 9 9 9 8 8 7
1 2 3 4 5 8 8 5 9 10 11 14 13 15 15 16 16 16 14 12 11 15 17 18 19 19 19 19 19 18 18 17 16 15 14 13 13 11 10 8 8 8 8 7
3 4 2 5 5 9 4 11 14 17 16 18 17 15 14 14 16 14 13 13 13 14 15 18 19 19 20 20 19 18 18 18 16 15 14 13 11 12 11 9 9 8 8 8
3 5 3 2 4 4 11 14 18 15 18 20 21 21 17 13 15 15 13 12 12 15 17 16 17 16 18 20 19 19 19 19 17 15 13 12 12 11 10 10 7 6 3 8
Wind_Direction
187 198 219 210 214 235 259 237 238 227 225 254 259 275 280 288 291 281 282 280 274 270 299 332 289 192 172 169 161 160 156 158 153 153 167 195 229 224 231 236 244 231 232 231
173 222 221 222 210 222 235 240 238 240 248 240 274 282 288 279 272 277 286 284 276 283 282 358 152 164 170 161 157 152 153 157 160 149 158 174 188 234 268 265 253 231 240 243
195 224 215 212 216 216 224 230 234 244 207 242 282 280 278 276 273 293 283 268 272 269 278 164 141 160 160 157 155 152 154 153 155 152 140 144 201 222 230 226 235 231 275 241
228 225 203 206 219 211 233 227 242 240 233 251 226 282 274 287 286 283 283 280 276 285 187 157 152 157 159 155 150 149 148 150 150 157 154 189 201 201 238 280 267 273 267 261
214 202 199 205 207 201 228 214 222 226 241 276 256 268 279 263 279 277 275 268 276 202 167 153 159 153 158 151 154 148 148 147 146 152 171 174 167 189 249 258 277 265 265 198
228 213 199 212 199 200 200 195 174 195 232 242 244 248 268 252 254 263 266 256 91 106 127 146 149 149 153 154 150 150 151 147 152 162 169 166 171 181 246 335 313 352 237 170
214 221 196 196 204 193 191 190 182 206 209 247 227 219 250 255 249 246 264 262 136 144 144 150 157 157 154 158 156 156 157 155 166 172 167 171 181 194 305 319 348 330 170 176
205 193 210 191 196 187 190 181 197 212 223 224 211 225 250 227 239 235 239 260 152 160 154 156 163 160 159 161 163 160 160 164 177 172 166 163 174 203 265 353 346 68 159 155
220 224 183 186 183 185 197 207 218 231 37 237 198 234 271 244 248 224 230 216 184 169 161 160 163 168 163 166 167 159 165 172 173 173 161 168 140 227 91 59 222 150 132 137
281 236 206 185 189 193 191 179 186 210 216 226 224 233 240 229 237 219 212 199 169 164 160 163 170 169 171 169 161 164 172 169 170 165 166 167 145 136 80 146 136 130 146 147
267 279 175 175 198 185 177 188 196 205 230 209 234 223 219 229 216 213 212 178 163 166 168 165 172 170 173 165 164 170 165 167 164 168 157 174 153 118 89 99 126 102 124 142
306 291 225 203 188 192 199 191 193 199 181 217 263 251 346 248 249 195 146 151 162 164 160 168 170 170 172 171 170 169 169 172 171 163 152 171 139 111 93 107 103 107 114 140
345 236 220 152 178 202 201 199 198 197 170 200 201 214 111 230 207 202 136 142 154 153 160 168 171 175 177 175 175 172 176 173 171 160 162 162 134 119 100 109 105 105 116 122
320 267 264 213 191 275 207 205 199 203 213 186 214 227 258 282 294 148 152 151 157 165 165 170 175 177 182 176 178 175 177 173 169 158 169 158 157 128 111 113 95 122 124 125
27 276 303 286 281 292 303 210 205 209 214 220 200 222 249 271 307 355 166 154 160 168 171 176 177 180 182 176 180 176 175 173 168 161 170 155 154 131 117 112 87 106 119 122
168 327 328 260 230 255 261 239 223 213 210 217 218 240 235 236 197 173 160 177 176 178 175 178 180 182 183 179 180 173 173 175 168 164 170 151 156 141 110 111 108 116 115 109
284 6 321 217 9 296 257 230 210 219 220 218 230 229 251 274 252 206 179 201 186 181 177 182 182 184 183 182 180 175 174 172 170 166 164 158 161 148 134 117 113 115 115 125
253 253 296 293 277 224 83 29 196 206 220 228 240 256 251 255 266 277 202 199 198 179 178 179 181 183 182 178 181 172 170 175 170 170 169 166 166 153 148 134 109 108 125 129
219 238 255 251 230 332 89 28 356 240 179 21 315 255 255 277 296 269 208 202 213 185 180 178 178 178 173 175 177 171 173 175 175 176 175 176 169 160 156 144 123 121 129 132
198 224 269 251 232 211 48 347 331 248 175 7 354 331 321 316 247 259 230 204 199 192 177 170 171 171 173 175 172 172 176 177 184 182 181 179 175 168 164 149 134 124 125 122
172 181 225 226 267 288 349 328 199 190 41 341 336 322 312 284 246 322 317 259 190 181 171 163 167 173 179 169 173 178 177 186 186 180 178 177 177 174 159 148 141 136 133 125
169 169 187 201 230 234 360 11 44 343 328 332 326 317 305 292 289 296 297 299 210 171 166 170 168 172 172 172 175 181 184 187 179 174 176 178 177 175 161 156 144 140 136 134
187 281 157 239 19 353 327 320 326 337 330 330 322 317 309 299 292 293 285 285 219 199 172 173 171 168 172 177 181 182 188 177 175 175 175 176 176 175 168 163 154 150 154 150
139 120 265 271 76 325 329 38 357 344 335 330 324 320 310 302 298 291 284 273 227 195 190 171 169 173 176 182 185 188 175 176 174 176 177 173 175 177 176 175 171 165 171 168
320 326 342 279 307 333 124 345 343 337 338 340 338 334 319 310 306 298 283 258 229 196 189 177 179 181 179 179 187 181 176 174 176 175 174 177 181 182 179 187 185 186 188 188
287 351 311 345 353 302 283 309 319 322 331 331 337 336 337 324 312 305 289 250 223 195 182 192 185 178 176 181 185 181 177 175 171 175 175 179 181 184 186 185 185 43 4 190